Location: Unspecified
(54.1780°N, 0.0000°E)
Time: 20:18:47
(UTC+00:00)

S-56A Canister/Altair - Pass Details

Date: 01 October 2020
Orbit: 632 x 2500 km, 38.9° (Epoch: 20 October)

Event Time Altitude Azimuth Distance (km) Brightness Sun altitude
Rises 19:51:43 0° 275° (W) 5,986 13.4 -20.4°
Reaches altitude 10° 19:57:49 10° 259° (WSW) 4,713 12.3 -21.2°
Maximum altitude 20:04:36 16° 226° (SW) 3,793 11.2 -22.1°
Drops below altitude 10° 20:10:22 10° 192° (SSW) 3,873 10.9 -22.8°
Enters shadow 20:13:21 - 178° (S) 4,266 11.0 -23.2°
